Flag for U.S.A. Weather past 2 weeks in Anchorage, Alaska, U.S.A.

Now
43 °F

Clear.


Feels Like: 38 °F
Forecast: 51 / 60 °F
Wind: 9 mph from East

Location: Lake Hood Seaplane

Current Time: Aug 28, 2015 at 7:40:48 AM

Latest Report: Aug 28, 2015 at 6:53 AM


Visibility: 10 mi

Pressure: 29.86 "Hg

Humidity: 68%

Dew point: 33 °F

Location of AnchorageLocation

Historic Weather in Anchorage — Graph

°F

Anchorage temperature yesterday

Maximum temperature yesterday: 65 °F (at 11:53 AM)
Minimum temperature yesterday: 50 °F (at 11:53 PM)
Average temperature yesterday: 58 °F

Past Weeks' High & Low Weather Summary

 TemperatureHumidityPressure
High71 °F (Aug 13, 5:53 PM)100% (Aug 17, 7:00 AM)30.20 "Hg (Aug 17, 7:00 AM)
Low45 °F (Aug 28, 4:53 AM)33% (Aug 22, 5:53 PM)29.56 "Hg (Aug 17, 11:53 PM)
Average59 °F66%29.94 "Hg
* Reported Aug 13 5:53 AM — Aug 28 5:53 AM, Anchorage, Weather by CustomWeather, © 2015

Note: Actual official high and low records may vary slightly from our data, if they occured in-between our weather recording intervals... More about our weather records

Advertising

Anchorage weather history for previous 24 hours

 ConditionsComfort  
Time TempWeatherWind HumidityBarometerVisibility
5:53 AM
Fri, Aug 28
45 °FClear.7 mph60%29.87 "Hg10 mi
4:53 AM45 °FClear.6 mph60%29.86 "Hg10 mi
3:53 AM46 °FClear.6 mph56%29.86 "Hg10 mi
2:53 AM48 °FClear.13 mph52%29.86 "Hg10 mi
1:53 AM49 °FClear.13 mph52%29.85 "Hg10 mi
12:53 AM50 °FClear.15 mph50%29.85 "Hg10 mi
11:53 PM
Thu, Aug 27
50 °FClear.15 mph50%29.83 "Hg10 mi
10:53 PM51 °FClear.14 mph50%29.81 "Hg10 mi
9:53 PM52 °FPartly sunny.20 mph49%29.78 "Hg10 mi
8:53 PM54 °FBroken clouds.24 mph47%29.73 "Hg10 mi
7:53 PM54 °FOvercast.12 mph49%29.73 "Hg10 mi
6:53 PM58 °FSunny.20 mph33%29.72 "Hg10 mi
5:53 PM59 °FPartly sunny.15 mph35%29.71 "Hg10 mi
4:53 PM59 °FMore clouds than sun.17 mph41%29.69 "Hg10 mi
3:53 PM62 °FOvercast.9 mph41%29.67 "Hg10 mi
2:53 PM64 °FMore clouds than sun.13 mph38%29.67 "Hg10 mi
1:53 PM65 °FPartly sunny.7 mph36%29.69 "Hg10 mi
12:53 PM65 °FPassing clouds.6 mph37%29.70 "Hg10 mi
11:53 AM65 °FSunny.12 mph36%29.71 "Hg10 mi
10:53 AM62 °FSunny.10 mph43%29.72 "Hg10 mi
9:53 AM60 °FPassing clouds.6 mph69%29.73 "Hg10 mi
8:53 AM57 °FOvercast.6 mph78%29.72 "Hg10 mi
7:53 AM58 °FOvercast.10 mph72%29.71 "Hg10 mi
Weather by CustomWeather, © 2015

See weather overviewHow to use our weather pages